Flag for United Kingdom Weather past 2 weeks in Haywards Heath, England, United Kingdom

Now
43 °F

Passing clouds.


Feels Like: 37 °F
Forecast: N/A
Wind: 10 mph from West

Location: London / Gatwick Airport

Current Time: Dec 20, 2014 at 7:33:22 PM

Latest Report: Dec 20, 2014 at 7:20 PM


Visibility: N/A

Pressure: 30.42 "Hg

Humidity: 81%

Dew point: 37 °F

Location of Haywards HeathLocation

Historic Weather in Haywards Heath — Graph

°F

Haywards Heath temperature yesterday

Maximum temperature yesterday: 54 °F (at 12:20 AM)
Minimum temperature yesterday: 41 °F (at 8:50 PM)
Average temperature yesterday: 48 °F

Past Weeks' High & Low Weather Summary

 TemperatureHumidityPressure
High55 °F (Dec 17, 12:50 PM)100% (Dec 6, 8:50 PM)30.42 "Hg (Dec 6, 8:50 PM)
Low25 °F (Dec 14, 4:50 AM)57% (Dec 7, 4:50 PM)29.30 "Hg (Dec 12, 5:50 AM)
Average43 °F85%29.98 "Hg
* Reported Dec 5 6:20 PM — Dec 20 6:20 PM, Haywards Heath, Weather by CustomWeather, © 2014

Note: Actual official high and low records may vary slightly from our data, if they occured in-between our weather recording intervals... More about our weather records

Advertising

Haywards Heath weather history for previous 24 hours

 ConditionsComfort  
Time TempWeatherWind HumidityBarometerVisibility
6:20 PM
Dec 20
43 °FPassing clouds.9 mph81%30.42 "HgN/A
5:50 PM43 °FPassing clouds.12 mph87%30.39 "HgN/A
5:20 PM45 °FPassing clouds.13 mph81%30.39 "HgN/A
4:50 PM45 °FPassing clouds.8 mph76%30.39 "HgN/A
4:20 PM46 °FPassing clouds.8 mph76%30.36 "HgN/A
3:50 PM46 °FScattered clouds.12 mph76%30.36 "HgN/A
3:20 PM48 °FScattered clouds.12 mph66%30.36 "HgN/A
2:50 PM48 °FScattered clouds.14 mph71%30.33 "HgN/A
2:20 PM48 °FScattered clouds.15 mph66%30.33 "HgN/A
1:50 PM48 °FPartly sunny.20 mph66%30.33 "HgN/A
1:20 PM48 °FScattered clouds.17 mph66%30.30 "HgN/A
12:20 PM48 °FPassing clouds.18 mph71%30.30 "HgN/A
11:50 AM48 °FPassing clouds.18 mph71%30.30 "HgN/A
11:20 AM46 °FPassing clouds.17 mph76%30.30 "HgN/A
10:50 AM46 °FScattered clouds.13 mph76%30.33 "HgN/A
10:20 AM46 °FScattered clouds.13 mph76%30.30 "HgN/A
9:50 AM45 °FScattered clouds.12 mph81%30.30 "HgN/A
9:20 AM45 °FScattered clouds.15 mph81%30.27 "HgN/A
8:50 AM45 °FPartly sunny.10 mph81%30.30 "HgN/A
8:20 AM45 °FPartly sunny.12 mph81%30.27 "HgN/A
7:50 AM43 °FPassing clouds.12 mph87%30.27 "HgN/A
7:20 AM43 °FPassing clouds.10 mph81%30.27 "HgN/A
6:50 AM45 °FPassing clouds.12 mph81%30.27 "HgN/A
6:20 AM43 °FPassing clouds.10 mph87%30.27 "HgN/A
5:50 AM43 °FPassing clouds.10 mph87%30.27 "HgN/A
5:20 AM43 °FPassing clouds.8 mph87%30.27 "HgN/A
4:50 AM43 °FPassing clouds.9 mph81%30.27 "HgN/A
4:20 AM41 °FPassing clouds.9 mph87%30.24 "HgN/A
3:50 AM41 °FPassing clouds.9 mph87%30.27 "HgN/A
3:20 AM39 °FClear.7 mph87%30.27 "Hg10 mi
2:50 AM41 °FClear.9 mph87%30.27 "Hg10 mi
2:20 AM41 °FClear.12 mph87%30.27 "Hg10 mi
1:50 AM41 °FClear.9 mph87%30.24 "Hg10 mi
1:20 AM39 °FClear.8 mph93%30.24 "Hg10 mi
12:50 AM41 °FClear.12 mph87%30.24 "Hg10 mi
12:20 AM41 °FClear.12 mph87%30.24 "Hg10 mi
11:50 PM
Dec 19
41 °FClear.12 mph87%30.24 "Hg10 mi
11:20 PM41 °FClear.10 mph87%30.24 "Hg10 mi
10:50 PM41 °FClear.8 mph87%30.24 "Hg10 mi
10:20 PM41 °FClear.7 mph81%30.24 "Hg10 mi
9:50 PM41 °FClear.9 mph81%30.21 "Hg10 mi
9:20 PM41 °FClear.5 mph81%30.21 "Hg10 mi
8:50 PM41 °FClear.6 mph81%30.21 "Hg10 mi
8:20 PM43 °FClear.6 mph76%30.21 "Hg10 mi
7:50 PM43 °FClear.7 mph76%30.18 "Hg10 mi
7:20 PM43 °FClear.9 mph76%30.18 "Hg10 mi
Weather by CustomWeather, © 2014

See weather overviewHow to use our weather pages